This is the latest recevied weather packets stored in our database for station/object M0UPS-13. If no packets are shown the sender has not sent any weather packets the latest 10 day(s).
| Time | Temp. | Humidity | Pressure | Rain* | Wind** | Luminosity | Snow |
|---|---|---|---|---|---|---|---|
| 1777832102 | 17.78° C | 60% | 1009.2 hPa | 0 mm | - | 36 W/m² | - |
| 1777831803 | 17.78° C | 60% | 1009.3 hPa | 0 mm | - | 38 W/m² | - |
| 1777831502 | 17.78° C | 60% | 1009.2 hPa | 0 mm | - | 40 W/m² | - |
| 1777831202 | 17.78° C | 60% | 1009.3 hPa | 0 mm | - | 44 W/m² | - |
| 1777830902 | 17.78° C | 60% | 1009.1 hPa | 0 mm | - | 46 W/m² | - |
| 1777830602 | 18.33° C | 58% | 1009.2 hPa | 0 mm | - | 48 W/m² | - |
| 1777830302 | 18.33° C | 58% | 1009.3 hPa | 0 mm | - | 50 W/m² | - |
| 1777830002 | 17.78° C | 58% | 1009.2 hPa | 0 mm | - | 53 W/m² | - |
| 1777829702 | 17.78° C | 59% | 1009.3 hPa | 0 mm | - | 55 W/m² | - |
| 1777829402 | 17.78° C | 59% | 1009.1 hPa | 0 mm | - | 58 W/m² | - |
| 1777829102 | 18.33° C | 58% | 1009.2 hPa | 0 mm | - | 58 W/m² | - |
| 1777828802 | 18.33° C | 57% | 1009.3 hPa | 0 mm | - | 65 W/m² | - |
| 1777828502 | 18.89° C | 58% | 1009.2 hPa | 0 mm | - | 107 W/m² | - |
| 1777828202 | 18.89° C | 57% | 1009.3 hPa | 0 mm | - | 88 W/m² | - |
| 1777827902 | 18.89° C | 58% | 1009.2 hPa | 0 mm | - | 102 W/m² | - |
| 1777827602 | 18.89° C | 58% | 1009.2 hPa | 0 mm | - | 99 W/m² | - |
| 1777827302 | 18.89° C | 58% | 1009.3 hPa | 0 mm | - | 172 W/m² | - |
| 1777827002 | 18.89° C | 58% | 1009.1 hPa | 0 mm | - | 174 W/m² | - |
| 1777826702 | 18.89° C | 56% | 1009.3 hPa | 0 mm | - | 92 W/m² | - |
| 1777826402 | 18.89° C | 57% | 1009.2 hPa | 0 mm | - | 176 W/m² | - |
| 1777826102 | 19.44° C | 55% | 1009.2 hPa | 0 mm | - | 223 W/m² | - |
| 1777825802 | 20° C | 56% | 1009.3 hPa | 0 mm | - | 129 W/m² | - |
| 1777825502 | 19.44° C | 55% | 1009.3 hPa | 0 mm | - | 288 W/m² | - |
| 1777825203 | 20° C | 55% | 1009.4 hPa | 0 mm | - | 307 W/m² | - |
| 1777824902 | 19.44° C | 57% | 1009.4 hPa | 0 mm | - | 320 W/m² | - |
* Rain latest hour (hover to see other rain measurements)
** Current wind speed in m/s (hover to see current wind gust speed)